Regional Weather Roundup
Issued by NWS

Home | Current Version | Previous Version | Graphics & Text | Print | Product List | Glossary On
Versions: 1 2 3 4 5 6 7 8 9 10 11 12 13 14 15 16 17 18 19 20 21 22 23 24 25 26 27 28 29 30 31 32 33 34 35 36 37 38 39 40 41 42 43 44 45 46 47 48 49 50
000
ASUS43 KMKX 131000
RWRWI

WISCONSIN REGIONAL WEATHER ROUNDUP
NATIONAL WEATHER SERVICE MILWAUKEE/SULLIVAN WI
400 AM CST WED DEC 13 2017

NOTE: "FAIR" INDICATES FEW OR NO CLOUDS BELOW 12,000 FEET WITH NO
SIGNIFICANT WEATHER AND/OR OBSTRUCTIONS TO VISIBILITY.

WIZ001-002-006>008-014>016-023>028-131100-
NORTHWEST WISCONSIN

CITY           SKY/WX    TMP DP  RH WIND       PRES   REMARKS
SUPERIOR ARPT  SNOW      18  15  90 E7        29.51F VSB 1/2 WCI   8
ASHLAND        SNOW      15  11  83 NE6       29.52F VSB 1/2 WCI   6
HAYWARD        CLOUDY    17  12  80 SE3       29.46F
SIREN          FLURRIES  20  16  86 SE8       29.42F WCI  10
CUMBERLAND     LGT SNOW  18  14  86 SE13      29.44F WCI   4
RICE LAKE      LGT SNOW  19  15  83 SE12G17   29.47F WCI   7
CHETEK         CLOUDY    19  14  81 SE8G16    29.48F WCI   9
LADYSMITH      CLOUDY    18  14  83 SE12      29.51F WCI   6
EAU CLAIRE     NOT AVBL
MENOMONIE      CLOUDY    23  17  77 E9        29.46F WCI  13
NEW RICHMOND   CLOUDY    23  18  80 SE10      29.40F WCI  12
OSCEOLA        CLOUDY    23  18  82 E12       29.43F WCI  12
$$

WIZ003>005-009-010-017-018-131100-
NORTH CENTRAL WISCONSIN

CITY           SKY/WX    TMP DP  RH WIND       PRES   REMARKS
MANITOWISH WTR CLOUDY    11   9  89 SE7       29.51F WCI   0
ARBOR VITAE    FLURRIES  14  10  85 SE8       29.52F WCI   3
WOODRUFF       FLURRIES  14  10  85 SE8       29.52F WCI   3
RHINELANDER    CLOUDY    12   9  87 SE9       29.53F WCI   0
EAGLE RIVER    FLURRIES  11   6  79 SE8       29.54F WCI  -1
LAND O LAKES   LGT SNOW  11   7  83 SE8       29.56F WCI  -1
PHILLIPS       CLOUDY    13  11  90 SE10      29.50F WCI   0
TOMAHAWK       FLURRIES  12   9  86 SE3       29.55F
MEDFORD        CLOUDY    14  11  87 SE7       29.52F WCI   4
MERRILL        FLURRIES  13  10  87 SE5       29.58F WCI   5
$$

WIZ029-030-035-036-043>047-131100-
CENTRAL WISCONSIN

CITY           SKY/WX    TMP DP  RH WIND       PRES   REMARKS
WAUSAU         CLOUDY    14  10  84 SE12      29.56F WCI   0
MOSINEE        CLOUDY    14  12  92 E6        29.59F WCI   5
MARSHFIELD     CLOUDY    17  12  80 SE10      29.51F WCI   5
STEVENS POINT  CLOUDY    14  11  88 SE7       29.60F WCI   4
WAUPACA        CLOUDY    19  12  76 SE8       29.66F WCI   9
WAUTOMA        CLOUDY    19  11  70 SE5       29.63F WCI  12
WISC RAPIDS    CLOUDY    18  11  74 SE9       29.57F WCI   7
CAMP DOUGLAS   CLOUDY    21  14  73 SE9       29.54F WCI  11
$$

WIZ011>013-019>022-031-037>040-048>050-131100-
NORTHEAST WISCONSIN

CITY           SKY/WX    TMP DP  RH WIND       PRES   REMARKS
ANTIGO         LGT SNOW  11   8  88 SE12      29.59F WCI  -4
SHAWANO        CLOUDY    16  11  80 SE7       29.68F HAZE    WCI   6
OCONTO         CLOUDY    16   7  67 SE7       29.71F WCI   6
STURGEON BAY   FLURRIES  15   8  73 SE5       29.71F WCI   8
GREEN BAY      LGT SNOW  16   9  74 SE8       29.69F WCI   5
MANITOWOC      MIX PCPN  16  11  80 S5        29.71F WCI   9
APPLETON       CLOUDY    18  12  79 SE10      29.65F WCI   6
CLINTONVILLE   NOT AVBL
OSHKOSH        CLOUDY    18  10  71 SE12      29.65F WCI   5
$$

WIZ032>034-041-042-053>061-131100-
SOUTHWEST WISCONSIN

CITY           SKY/WX    TMP DP  RH WIND       PRES   REMARKS
LA CROSSE      CLOUDY    28  20  71 S9        29.51F WCI  19
SPARTA         CLOUDY    26  19  74 SE5       29.55F WCI  20
VIROQUA        CLOUDY    24  19  82 SE8       29.54F WCI  14
BOSCOBEL       CLOUDY    28  17  63 S5        29.57F WCI  23
PRAIRIE DU CHI CLOUDY    30  19  61 S6        29.57F WCI  24
PLATTEVILLE    CLOUDY    25  17  69 S14       29.60F WCI  14
$$

WIZ056-057-062-063-064-067-068-131100-
SOUTH CENTRAL WISCONSIN

CITY           SKY/WX    TMP DP  RH WIND       PRES   REMARKS
REEDSBURG      CLOUDY    23  13  65 S5        29.59F WCI  17
BARABOO/DELLS  CLOUDY    23  12  64 S9        29.59F WCI  13
LONE ROCK      NOT AVBL
MINERAL POINT  CLOUDY    27  16  63 SE14      29.58F WCI  15
MADISON        CLOUDY    24  12  60 S13       29.62F WCI  12
MIDDLETON      CLOUDY    26  13  59 S9        29.63F WCI  16
WATERTOWN      CLOUDY    21  12  68 SE7       29.67F WCI  13
MONROE         CLOUDY    25  12  58 S14       29.64F WCI  13
JANESVILLE     CLOUDY    28  12  50 S10       29.68F WCI  19
$$

WIZ051-052-058>065-066-070>072-131100-
SOUTHEAST WISCONSIN

CITY           SKY/WX    TMP DP  RH WIND       PRES   REMARKS
MILWAUKEE      CLOUDY    22  10  60 S9        29.72F WCI  12
WAUKESHA       CLOUDY    19   9  63 S9        29.71F WCI   9
MILWAUKEE/TIMM CLOUDY    21   5  49 SE8       29.73F WCI  12
RACINE         CLOUDY    22  10  60 S10       29.74F WCI  11
BURLINGTON       N/A    N/A N/A N/A MISG        N/A
KENOSHA        CLOUDY    22  11  62 S12       29.72F WCI  10
FOND DU LAC    CLOUDY    20  10  65 S12       29.65F WCI   8
SHEBOYGAN      MIX PCPN  17  12  80 SE3       29.70F
WEST BEND      CLOUDY    19  10  68 S8        29.69F WCI   9
JUNEAU         CLOUDY    19  10  68 SE9       29.68F WCI   9
$$

LSZ147-162-131100-
LAKE SUPERIOR

STATION/POSITION TIME  TEMP    WIND        PRES    WAVE
                       AIR SEA DIR/SP/G            HT/PER
                 (UTC) (F)     (DEG/KT/KT) (MB)    (FT/S)
DEVILS ISLAND    0900   21     120/ 16/ 19 1002.4F
SAXON HARBOR     0930   17                 1000.7F
$$

LMZ867-665-643>646-131100-
LAKE MICHIGAN

STATION/POSITION TIME  TEMP    WIND        PRES    WAVE
                       AIR SEA DIR/SP/G            HT/PER
                 (UTC) (F)     (DEG/KT/KT) (MB)    (FT/S)
NORTHPORT PIER   0941   17     170/  1/  3 1006.8F
KEWAUNEE LAKESHO 0930   15     210/  5/  6 1006.4F
SHEBOYGAN LAKESH 0900   17     200/  8/  9 1009.0F
PORT WASHINGTON  0930   24     170/ 13/ 15 1007.8F
MILWAUKEE LAKESH 0930   22     170/ 13/ 14   N/A
KENOSHA   LAKESH 0900   22     200/  8/ 12 1009.1
$$

TC  - TEMPERATURE IN CELSIUS
VSB - VISIBILITY IN STATUTE MILES
WCI - WIND CHILL INDEX
HX  - HEAT INDEX





USA.gov is the U.S. government's official web portal to all federal, state and local government web resources and services.